This is the latest recevied weather packets stored in our database for station/object NB9X. If no packets are shown the sender has not sent any weather packets the latest 10 day(s).
| Time | Temp. | Humidity | Pressure | Rain* | Wind** | Luminosity | Snow |
|---|---|---|---|---|---|---|---|
| 1777417105 | 27.78° C | 100% | 1015.7 hPa | 0 mm | - | - | - |
| 1777416805 | 27.78° C | 100% | 1015.7 hPa | 0 mm | - | - | - |
| 1777416505 | 27.78° C | 100% | 1015.6 hPa | 0 mm | - | - | - |
| 1777416205 | 27.22° C | 100% | 1015.6 hPa | 0 mm | - | - | - |
| 1777415905 | 27.78° C | 100% | 1015.7 hPa | 0 mm | - | - | - |
| 1777415605 | 28.33° C | 100% | 1015.8 hPa | 0 mm | - | - | - |
| 1777415305 | 28.33° C | 100% | 1015.6 hPa | 0 mm | - | - | - |
| 1777415005 | 29.44° C | 100% | 1015.8 hPa | 0 mm | - | - | - |
| 1777414705 | 28.89° C | 100% | 1015.8 hPa | 0 mm | - | - | - |
| 1777414405 | 28.89° C | 100% | 1015.8 hPa | 0 mm | - | - | - |
| 1777414105 | 28.89° C | 100% | 1015.8 hPa | 0 mm | - | - | - |
| 1777413805 | 30.56° C | 100% | 1015.8 hPa | 0 mm | - | - | - |
| 1777413505 | 30.56° C | 100% | 1015.9 hPa | 0 mm | - | - | - |
| 1777413205 | 29.44° C | 100% | 1015.9 hPa | 0 mm | - | - | - |
| 1777412905 | 29.44° C | 100% | 1016 hPa | 0 mm | - | - | - |
| 1777412605 | 30° C | 100% | 1016 hPa | 0 mm | - | - | - |
| 1777412305 | 30° C | 100% | 1016 hPa | 0 mm | - | - | - |
| 1777412005 | 30° C | 100% | 1015.9 hPa | 0 mm | - | - | - |
| 1777411705 | 30° C | 100% | 1015.9 hPa | 0 mm | - | - | - |
| 1777411405 | 30° C | 100% | 1015.9 hPa | 0 mm | - | - | - |
| 1777411105 | 30° C | 100% | 1015.9 hPa | 0 mm | - | - | - |
| 1777410805 | 28.89° C | 100% | 1016 hPa | 0 mm | - | - | - |
| 1777410506 | 30° C | 100% | 1016.1 hPa | 0 mm | - | - | - |
| 1777410206 | 30° C | 100% | 1016.1 hPa | 0 mm | - | - | - |
| 1777409905 | 31.11° C | 100% | 1016.1 hPa | 0 mm | - | - | - |
* Rain latest hour (hover to see other rain measurements)
** Current wind speed in m/s (hover to see current wind gust speed)